Weather History for Mount Airy, NC

Change the Weather History Date:

Wednesday, March 6, 2013

  Actual Average (KINT) Record (KINT)
Temperature  
Mean Temperature 38 °F -  
Max Temperature 44 °F 55 °F 100 °F (1998)
Min Temperature 33 °F 35 °F 17 °F (1975)
Degree Days  
Heating Degree Days 26    
Moisture  
Dew Point 27 °F    
Average Humidity 63    
Maximum Humidity 90    
Minimum Humidity 49    
Precipitation  
Precipitation 0.06 in - - ()
Sea Level Pressure  
Sea Level Pressure 29.81 in    
Wind  
Wind Speed 11 mph (NW)    
Max Wind Speed 29 mph    
Max Gust Speed 40 mph    
Visibility 10 miles    
Events Rain    
Averages and records for this station are not official NWS values.
T = Trace of Precipitation, MM = Missing Value Source: NWS Daily Summary

Daily Weather History Graph

Daily Weather History Graph

Search for Another Location

Airport:

Trip Planner

Search our weather history database for the weather conditions in past years. The results will help you decide how hot, cold, wet, or windy it might be!

Date:

Astronomy

Mar. 06, 2013 Rise Set
Actual Time 6:45 AM EST 6:21 PM EST
Civil Twilight 6:19 AM EST 6:47 PM EST
Nautical Twilight 5:49 AM EST 7:17 PM EST
Astronomical Twilight 5:20 AM EST 7:47 PM EST
Moon 2:46 AM EST (3/6) 1:08 PM EST (3/6)
Length of Visible Light 12h 27m
Length of Day
11h 36m
Waning Crescent, 30% of the Moon is Illuminated
Mar 6
Waning Crescent
Mar 11
New
Mar 19
First Quarter
Mar 27
Full
Apr 3
Last Quarter

Hourly Weather History & Observations

Time (EST) Temp. Windchill Dew Point Humidity Pressure Visibility Wind Dir Wind Speed Gust Speed Precip Events Conditions
12:15 AM 41.0 °F 39.0 °F 38.3 °F 90% 29.58 in 10.0 mi WNW 3.5 mph - N/A   Light Drizzle
12:35 AM 41.2 °F 38.2 °F 38.5 °F 90% 29.58 in 7.0 mi West 4.6 mph - 0.01 in Rain Light Rain
12:55 AM 41.2 °F - 38.5 °F 90% 29.58 in 7.0 mi Calm Calm - 0.02 in Rain Light Rain
1:15 AM 40.6 °F - 37.9 °F 90% 29.59 in 3.0 mi Calm Calm - 0.03 in Rain Rain
1:35 AM 40.8 °F 33.7 °F 38.1 °F 90% 29.59 in 7.0 mi WNW 12.7 mph 16.1 mph 0.04 in   Overcast
1:55 AM 39.4 °F 32.3 °F 34.0 °F 81% 29.60 in 10.0 mi WNW 11.5 mph 23.0 mph 0.04 in   Overcast
2:15 AM 39.4 °F 31.4 °F 32.5 °F 76% 29.59 in 10.0 mi WNW 13.8 mph 24.2 mph N/A   Overcast
2:35 AM 38.8 °F 30.4 °F 30.6 °F 72% 29.60 in 10.0 mi WNW 15.0 mph 25.3 mph N/A   Overcast
2:55 AM 38.7 °F 30.9 °F 29.5 °F 70% 29.60 in 10.0 mi WNW 12.7 mph 21.9 mph N/A   Overcast
3:15 AM 38.3 °F 32.5 °F 28.8 °F 69% 29.60 in 10.0 mi WNW 8.1 mph 24.2 mph N/A   Overcast
3:35 AM 37.8 °F 30.2 °F 28.0 °F 68% 29.60 in 10.0 mi WNW 11.5 mph 20.7 mph N/A   Overcast
3:55 AM 37.8 °F 31.3 °F 28.2 °F 68% 29.60 in 10.0 mi WNW 9.2 mph 21.9 mph N/A   Overcast
4:15 AM 37.4 °F 32.8 °F 27.1 °F 66% 29.61 in 10.0 mi WNW 5.8 mph - N/A   Overcast
4:35 AM 37.0 °F 29.8 °F 26.2 °F 65% 29.61 in 10.0 mi West 10.4 mph 18.4 mph N/A   Overcast
4:55 AM 36.7 °F 27.2 °F 25.7 °F 64% 29.61 in 10.0 mi WNW 16.1 mph 20.7 mph N/A   Overcast
5:15 AM 36.5 °F 29.2 °F 25.2 °F 64% 29.62 in 10.0 mi West 10.4 mph 21.9 mph N/A   Overcast
5:35 AM 36.1 °F 29.3 °F 24.3 °F 62% 29.63 in 10.0 mi WNW 9.2 mph 19.6 mph N/A   Overcast
5:55 AM 35.8 °F 27.3 °F 23.5 °F 61% 29.63 in 10.0 mi WNW 12.7 mph 20.7 mph N/A   Overcast
6:15 AM 35.1 °F 25.5 °F 22.1 °F 59% 29.64 in 10.0 mi NW 15.0 mph 26.5 mph N/A   Overcast
6:35 AM 34.7 °F 24.3 °F 21.4 °F 58% 29.65 in 10.0 mi WNW 17.3 mph 23.0 mph N/A   Overcast
6:55 AM 34.3 °F 23.2 °F 20.5 °F 57% 29.65 in 10.0 mi WNW 19.6 mph 26.5 mph N/A   Overcast
7:15 AM 34.2 °F 25.2 °F 21.2 °F 59% 29.66 in 10.0 mi NW 12.7 mph 28.8 mph N/A   Mostly Cloudy
7:35 AM 33.8 °F 23.5 °F 21.2 °F 60% 29.66 in 10.0 mi WNW 16.1 mph 24.2 mph N/A   Scattered Clouds
7:55 AM 34.2 °F 24.4 °F 21.7 °F 60% 29.68 in 10.0 mi NW 15.0 mph 28.8 mph N/A   Scattered Clouds
8:15 AM 34.3 °F 25.5 °F 21.6 °F 60% 29.69 in 10.0 mi WNW 12.7 mph 28.8 mph N/A   Mostly Cloudy
8:35 AM 35.6 °F 27.5 °F 22.1 °F 58% 29.71 in 10.0 mi NW 11.5 mph 25.3 mph N/A   Mostly Cloudy
8:55 AM 35.6 °F 26.6 °F 22.6 °F 59% 29.73 in 10.0 mi NW 13.8 mph 23.0 mph N/A   Mostly Cloudy
9:15 AM 35.6 °F 25.9 °F 23.0 °F 60% 29.73 in 10.0 mi NW 16.1 mph 21.9 mph N/A   Mostly Cloudy
9:35 AM 36.0 °F 27.5 °F 23.0 °F 59% 29.73 in 10.0 mi WNW 12.7 mph 21.9 mph N/A   Scattered Clouds
9:55 AM 37.6 °F 27.4 °F 24.4 °F 59% 29.73 in 10.0 mi WNW 19.6 mph 29.9 mph N/A   Clear
10:15 AM 37.6 °F 27.4 °F 22.3 °F 54% 29.73 in 10.0 mi NW 19.6 mph 32.2 mph N/A   Scattered Clouds
10:35 AM 37.6 °F 28.8 °F 22.8 °F 55% 29.73 in 10.0 mi NW 15.0 mph 39.1 mph N/A   Scattered Clouds
10:55 AM 38.3 °F 26.4 °F 22.6 °F 53% 29.75 in 10.0 mi NW 28.8 mph 39.1 mph N/A   Scattered Clouds
11:15 AM 40.1 °F 29.5 °F 23.5 °F 52% 29.75 in 10.0 mi NW 25.3 mph 40.3 mph N/A   Scattered Clouds
11:35 AM 41.2 °F 32.4 °F 24.8 °F 52% 29.76 in 10.0 mi NW 18.4 mph 33.4 mph N/A   Scattered Clouds
11:55 AM 41.0 °F 31.4 °F 24.3 °F 51% 29.79 in 10.0 mi NW 21.9 mph 28.8 mph N/A   Scattered Clouds
12:15 PM 41.5 °F 31.9 °F 24.4 °F 51% 29.79 in 10.0 mi NW 23.0 mph 32.2 mph N/A   Mostly Cloudy
12:35 PM 41.4 °F 34.7 °F 24.8 °F 52% 29.80 in 10.0 mi NW 11.5 mph 32.2 mph N/A   Mostly Cloudy
12:55 PM 43.2 °F 36.2 °F 25.9 °F 51% 29.80 in 10.0 mi NW 13.8 mph 26.5 mph N/A   Mostly Cloudy
1:15 PM 42.1 °F 36.6 °F 24.8 °F 50% 29.80 in 10.0 mi NW 9.2 mph 24.2 mph N/A   Overcast
1:55 PM 41.4 °F 33.3 °F 25.2 °F 53% 29.81 in 10.0 mi NW 16.1 mph 25.3 mph N/A   Overcast
2:15 PM 41.9 °F 34.6 °F 25.7 °F 53% 29.82 in 10.0 mi WNW 13.8 mph 25.3 mph N/A   Overcast
2:35 PM 41.2 °F 34.1 °F 26.1 °F 55% 29.83 in 10.0 mi NW 12.7 mph 24.2 mph N/A   Overcast
2:55 PM 41.9 °F 34.6 °F 27.1 °F 56% 29.84 in 10.0 mi NW 13.8 mph 20.7 mph N/A   Mostly Cloudy
3:15 PM 44.4 °F 37.2 °F 26.1 °F 49% 29.85 in 10.0 mi WNW 16.1 mph 24.2 mph N/A   Mostly Cloudy
3:35 PM 41.7 °F 35.2 °F 26.1 °F 54% 29.89 in 10.0 mi NNW 11.5 mph 21.9 mph N/A   Mostly Cloudy
3:55 PM 41.4 °F 33.6 °F 26.4 °F 55% 29.90 in 10.0 mi NW 15.0 mph 26.5 mph N/A   Overcast
4:15 PM 40.1 °F 31.0 °F 26.6 °F 59% 29.92 in 10.0 mi NNW 18.4 mph 27.6 mph N/A   Mostly Cloudy
4:35 PM 39.9 °F 31.1 °F 27.0 °F 60% 29.94 in 10.0 mi NW 17.3 mph 27.6 mph N/A   Mostly Cloudy
4:55 PM 39.4 °F 32.7 °F 27.0 °F 61% 29.95 in 10.0 mi NW 10.4 mph 25.3 mph N/A   Overcast
5:15 PM 39.4 °F 31.1 °F 26.6 °F 60% 29.96 in 10.0 mi NW 15.0 mph 26.5 mph N/A   Mostly Cloudy
5:35 PM 38.5 °F 28.9 °F 26.6 °F 62% 29.97 in 10.0 mi NW 18.4 mph 29.9 mph N/A   Mostly Cloudy
5:55 PM 38.3 °F 30.5 °F 26.4 °F 62% 29.98 in 10.0 mi NW 12.7 mph 25.3 mph N/A   Overcast
6:15 PM 38.3 °F 30.9 °F 26.4 °F 62% 30.00 in 10.0 mi NW 11.5 mph 20.7 mph N/A   Overcast
6:35 PM 37.8 °F 30.7 °F 26.4 °F 64% 30.01 in 10.0 mi NW 10.4 mph 21.9 mph N/A   Overcast
6:55 PM 37.8 °F 29.8 °F 26.6 °F 64% 30.02 in 10.0 mi NW 12.7 mph 18.4 mph N/A   Overcast
7:15 PM 37.8 °F 31.8 °F 26.6 °F 64% 30.03 in 10.0 mi North 8.1 mph - N/A   Overcast
7:35 PM 37.6 °F 32.3 °F 26.6 °F 65% 30.02 in 10.0 mi NW 6.9 mph - N/A   Overcast
7:55 PM 37.4 °F 30.8 °F 26.6 °F 65% 30.02 in 10.0 mi NNW 9.2 mph 18.4 mph N/A   Overcast
8:15 PM 37.4 °F 29.8 °F 26.8 °F 66% 30.01 in 10.0 mi NW 11.5 mph 20.7 mph N/A   Overcast
8:35 PM 36.9 °F 30.7 °F 27.0 °F 67% 30.02 in 10.0 mi NW 8.1 mph 20.7 mph N/A   Overcast
8:55 PM 37.0 °F 31.6 °F 27.1 °F 67% 30.03 in 10.0 mi NW 6.9 mph 18.4 mph N/A   Overcast
9:15 PM 37.0 °F 31.6 °F 27.1 °F 67% 30.05 in 10.0 mi NW 6.9 mph - N/A   Overcast
9:35 PM 37.4 °F 29.3 °F 27.3 °F 67% 30.05 in 10.0 mi NW 12.7 mph 24.2 mph N/A   Overcast
9:55 PM 37.0 °F 31.6 °F 27.5 °F 68% 30.05 in 10.0 mi NNW 6.9 mph 19.6 mph N/A   Overcast
10:15 PM 36.9 °F 28.2 °F 27.5 °F 69% 30.06 in 10.0 mi NW 13.8 mph 20.7 mph N/A   Overcast
10:35 PM 36.9 °F 28.7 °F 27.5 °F 69% 30.07 in 10.0 mi NNW 12.7 mph 19.6 mph N/A   Overcast
10:55 PM 36.9 °F 28.2 °F 27.5 °F 69% 30.07 in 10.0 mi NW 13.8 mph 21.9 mph N/A   Overcast
11:15 PM 36.9 °F 27.8 °F 27.5 °F 69% 30.07 in 10.0 mi North 15.0 mph 26.5 mph N/A   Overcast
11:35 PM 36.9 °F 29.1 °F 27.5 °F 69% 30.07 in 10.0 mi North 11.5 mph 17.3 mph N/A   Overcast
11:55 PM 36.9 °F 31.4 °F 27.5 °F 69% 30.07 in 10.0 mi NW 6.9 mph - N/A   Overcast